When you browse on this site, cookies collect data to enhance your experience and personalize the content and advertising you see.
Visit our Privacy Policy to learn more. By continuing to use the site, you agree to this use of cookies and data.
  • In United Kingdom
  • List of Countries
  • For 7 days
  • Water Temperature
  • Satellite Maps
  • Weather Map
  • Weather Widgets
  • user-avatar
    Login

    Hourly Weather Punta Cana

    Today, 22 May, Wednesday

    Time Temperature Precipitation Wind Pressure Humidity
    00:00 +28°C° 0 mm 3 mps 761 mmHg 86%
    01:00 +27°C° 0 mm 3 mps 762 mmHg 86%
    02:00 +27°C° 0.1 mm 3 mps 761 mmHg 87%
    03:00 +27°C° 0.1 mm 3 mps 761 mmHg 87%
    04:00 +27°C° 0.1 mm 3 mps 761 mmHg 87%
    05:00 +28°C° 0 mm 4 mps 761 mmHg 83%
    06:00 +29°C° 0 mm 4 mps 762 mmHg 79%
    07:00 +30°C° 0 mm 4 mps 762 mmHg 71%
    08:00 +32°C° 0 mm 4 mps 762 mmHg 66%
    09:00 +33°C° 0 mm 4 mps 762 mmHg 61%
    10:00 +34°C° 0 mm 4 mps 762 mmHg 56%
    11:00 +35°C° 0 mm 4 mps 762 mmHg 54%
    12:00 +35°C° 0 mm 4 mps 762 mmHg 53%
    13:00 +35°C° 0 mm 4 mps 761 mmHg 52%
    14:00 +35°C° 0 mm 4 mps 761 mmHg 54%
    15:00 +34°C° 0 mm 4 mps 761 mmHg 56%
    16:00 +34°C° 0 mm 3 mps 761 mmHg 57%
    17:00 +32°C° 0 mm 4 mps 761 mmHg 64%
    18:00 +30°C° 0 mm 4 mps 761 mmHg 71%
    19:00 +28°C° 0 mm 4 mps 761 mmHg 77%
    20:00 +28°C° 0 mm 4 mps 761 mmHg 80%
    21:00 +28°C° 0 mm 4 mps 762 mmHg 82%
    22:00 +28°C° 0 mm 4 mps 762 mmHg 84%
    23:00 +28°C° 0 mm 4 mps 762 mmHg 84%

    Tomorrow, 23 May, Thursday

    Time Temperature Precipitation Wind Pressure Humidity
    00:00 +28°C° 0 mm 4 mps 761 mmHg 83%
    01:00 +28°C° 0 mm 4 mps 761 mmHg 83%
    02:00 +28°C° 0.5 mm 3 mps 761 mmHg 85%
    03:00 +27°C° 0.5 mm 3 mps 761 mmHg 87%
    04:00 +27°C° 0.5 mm 3 mps 761 mmHg 89%
    05:00 +28°C° 0.2 mm 3 mps 761 mmHg 86%
    06:00 +28°C° 0.2 mm 3 mps 761 mmHg 82%
    07:00 +29°C° 0.2 mm 3 mps 761 mmHg 79%
    08:00 +30°C° 0.1 mm 3 mps 762 mmHg 72%
    09:00 +31°C° 0.1 mm 3 mps 762 mmHg 65%
    10:00 +33°C° 0.1 mm 3 mps 762 mmHg 59%
    11:00 +34°C° 0 mm 3 mps 762 mmHg 55%
    12:00 +34°C° 0 mm 3 mps 761 mmHg 52%
    13:00 +35°C° 0 mm 3 mps 761 mmHg 49%
    14:00 +34°C° 0 mm 3 mps 760 mmHg 52%
    15:00 +34°C° 0 mm 3 mps 760 mmHg 54%
    16:00 +33°C° 0 mm 3 mps 760 mmHg 57%
    17:00 +31°C° 0 mm 3 mps 760 mmHg 64%
    18:00 +29°C° 0 mm 3 mps 760 mmHg 71%
    19:00 +28°C° 0 mm 3 mps 761 mmHg 77%
    20:00 +28°C° 0.1 mm 3 mps 761 mmHg 79%
    21:00 +28°C° 0.1 mm 3 mps 761 mmHg 80%
    22:00 +28°C° 0.1 mm 3 mps 762 mmHg 82%
    23:00 +27°C° 0.3 mm 2 mps 761 mmHg 83%

    Day after tomorrow, 24 May, Friday

    Time Temperature Precipitation Wind Pressure Humidity
    00:00 +27°C° 0.3 mm 2 mps 761 mmHg 83%
    01:00 +27°C° 0.3 mm 1 mps 760 mmHg 84%
    02:00 +27°C° 0 mm 1 mps 760 mmHg 85%
    03:00 +26°C° 0 mm 1 mps 760 mmHg 85%
    04:00 +26°C° 0 mm 1 mps 760 mmHg 86%
    05:00 +27°C° 0 mm 2 mps 760 mmHg 80%
    06:00 +29°C° 0 mm 2 mps 761 mmHg 74%
    07:00 +30°C° 0 mm 3 mps 761 mmHg 68%
    08:00 +31°C° 0.1 mm 3 mps 761 mmHg 63%
    09:00 +33°C° 0.1 mm 4 mps 761 mmHg 58%
    10:00 +34°C° 0.1 mm 4 mps 762 mmHg 53%
    11:00 +35°C° 0 mm 4 mps 761 mmHg 52%
    12:00 +35°C° 0 mm 4 mps 761 mmHg 51%
    13:00 +35°C° 0 mm 5 mps 761 mmHg 51%
    14:00 +34°C° 0 mm 4 mps 760 mmHg 53%
    15:00 +34°C° 0 mm 4 mps 760 mmHg 56%
    16:00 +33°C° 0 mm 4 mps 759 mmHg 58%
    17:00 +32°C° 0.4 mm 4 mps 760 mmHg 65%
    18:00 +29°C° 0.4 mm 3 mps 760 mmHg 73%
    19:00 +28°C° 0.4 mm 3 mps 761 mmHg 80%
    20:00 +28°C° 0.4 mm 3 mps 761 mmHg 82%
    21:00 +28°C° 0.4 mm 3 mps 761 mmHg 83%
    22:00 +27°C° 0.4 mm 3 mps 762 mmHg 84%
    23:00 +27°C° 0.1 mm 3 mps 761 mmHg 85%

    25 May, Saturday

    Time Temperature Precipitation Wind Pressure Humidity
    00:00 +27°C° 0.1 mm 2 mps 761 mmHg 85%
    01:00 +27°C° 0.1 mm 2 mps 761 mmHg 86%
    02:00 +27°C° 0.6 mm 2 mps 761 mmHg 86%
    03:00 +27°C° 0.6 mm 2 mps 760 mmHg 86%
    04:00 +27°C° 0.6 mm 2 mps 760 mmHg 87%
    05:00 +28°C° 0 mm 2 mps 761 mmHg 82%
    06:00 +29°C° 0 mm 3 mps 761 mmHg 77%
    07:00 +30°C° 0 mm 3 mps 761 mmHg 73%
    08:00 +31°C° 0 mm 3 mps 762 mmHg 67%
    09:00 +33°C° 0 mm 4 mps 762 mmHg 61%
    10:00 +34°C° 0 mm 4 mps 762 mmHg 55%
    11:00 +34°C° 0 mm 4 mps 762 mmHg 54%
    12:00 +34°C° 0 mm 4 mps 761 mmHg 53%
    13:00 +35°C° 0 mm 4 mps 761 mmHg 53%
    14:00 +34°C° 0 mm 4 mps 761 mmHg 56%
    15:00 +33°C° 0 mm 4 mps 760 mmHg 59%
    16:00 +32°C° 0 mm 4 mps 760 mmHg 62%
    17:00 +30°C° 0.1 mm 4 mps 760 mmHg 67%
    18:00 +29°C° 0.1 mm 4 mps 761 mmHg 72%
    19:00 +28°C° 0.1 mm 4 mps 761 mmHg 78%
    20:00 +28°C° 0.6 mm 3 mps 761 mmHg 81%
    21:00 +28°C° 0.6 mm 3 mps 762 mmHg 83%
    22:00 +27°C° 0.6 mm 3 mps 762 mmHg 86%
    23:00 +27°C° 0.4 mm 3 mps 762 mmHg 87%

    26 May, Sunday

    Time Temperature Precipitation Wind Pressure Humidity
    00:00 +27°C° 0.4 mm 3 mps 761 mmHg 88%
    01:00 +27°C° 0.4 mm 3 mps 761 mmHg 89%
    02:00 +27°C° 0.5 mm 3 mps 761 mmHg 89%
    03:00 +27°C° 0.5 mm 4 mps 761 mmHg 90%
    04:00 +26°C° 0.5 mm 4 mps 760 mmHg 90%
    05:00 +27°C° 0 mm 4 mps 761 mmHg 87%
    06:00 +28°C° 0 mm 5 mps 761 mmHg 83%
    07:00 +29°C° 0 mm 5 mps 762 mmHg 79%
    08:00 +30°C° 0 mm 5 mps 762 mmHg 71%
    09:00 +33°C° 0 mm 5 mps 762 mmHg 63%
    10:00 +34°C° 0 mm 5 mps 762 mmHg 55%
    11:00 +34°C° 0 mm 5 mps 762 mmHg 53%
    12:00 +35°C° 0 mm 4 mps 762 mmHg 51%
    13:00 +35°C° 0 mm 4 mps 761 mmHg 49%
    14:00 +34°C° 0 mm 4 mps 761 mmHg 52%
    15:00 +34°C° 0 mm 4 mps 761 mmHg 55%
    16:00 +33°C° 0 mm 4 mps 760 mmHg 58%
    17:00 +32°C° 0.2 mm 4 mps 761 mmHg 66%
    18:00 +29°C° 0.2 mm 4 mps 761 mmHg 75%
    19:00 +28°C° 0.2 mm 4 mps 761 mmHg 83%
    20:00 +28°C° 0.5 mm 3 mps 762 mmHg 84%
    21:00 +27°C° 0.5 mm 3 mps 762 mmHg 84%
    22:00 +27°C° 0.5 mm 3 mps 762 mmHg 85%
    23:00 +27°C° 0.4 mm 3 mps 761 mmHg 85%

    27 May, Monday

    Time Temperature Precipitation Wind Pressure Humidity
    00:00 +27°C° 0.4 mm 3 mps 761 mmHg 85%
    01:00 +27°C° 0.4 mm 3 mps 760 mmHg 85%
    02:00 +27°C° 0.2 mm 3 mps 761 mmHg 86%
    03:00 +27°C° 0.2 mm 3 mps 761 mmHg 86%
    04:00 +27°C° 0.2 mm 4 mps 761 mmHg 87%
    05:00 +28°C° 0.1 mm 4 mps 761 mmHg 82%
    06:00 +29°C° 0.1 mm 4 mps 761 mmHg 77%
    07:00 +30°C° 0.1 mm 4 mps 762 mmHg 72%
    08:00 +32°C° 0 mm 4 mps 762 mmHg 65%
    09:00 +33°C° 0 mm 5 mps 762 mmHg 59%
    10:00 +34°C° 0 mm 5 mps 762 mmHg 53%
    11:00 +34°C° 0 mm 5 mps 761 mmHg 51%
    12:00 +35°C° 0 mm 4 mps 761 mmHg 50%
    13:00 +35°C° 0 mm 4 mps 760 mmHg 48%
    14:00 +34°C° 0 mm 4 mps 760 mmHg 50%
    15:00 +34°C° 0 mm 4 mps 760 mmHg 53%
    16:00 +33°C° 0 mm 4 mps 759 mmHg 55%
    17:00 +32°C° 0 mm 4 mps 760 mmHg 62%
    18:00 +30°C° 0 mm 4 mps 760 mmHg 70%
    19:00 +28°C° 0 mm 4 mps 760 mmHg 77%
    20:00 +28°C° 0.2 mm 3 mps 761 mmHg 80%
    21:00 +28°C° 0.2 mm 3 mps 761 mmHg 82%
    22:00 +27°C° 0.2 mm 3 mps 761 mmHg 85%
    23:00 +27°C° 1.2 mm 2 mps 761 mmHg 86%
    Show more